Location: Crescent
(42.8242°N, 73.7329°W)
Time: 08:40:58
(UTC+00:00)

Explorer 7 - Visible Passes

Search period start: 10 December 2025 00:00
Search period end: 20 December 2025 00:00
Orbit: 436 x 554 km, 50.3° (Epoch: 09 December)

Date Brightness Start Highest point End Pass type
(mag) Time Alt. Az. Time Alt. Az. Time Alt. Az.
10 Dec 6.7 22:51:14 10° SW 22:54:40 50° SE 22:55:30 39° E visible
11 Dec 6.8 22:27:47 10° SW 22:31:15 50° SE 22:33:13 22° ENE visible
12 Dec 9.2 00:06:38 10° W 00:07:43 17° WNW 00:07:43 17° WNW visible
12 Dec 6.8 22:04:19 10° SW 22:07:48 50° SE 22:10:50 12° ENE visible
12 Dec 8.2 23:43:10 10° W 23:45:21 28° WNW 23:45:21 28° WNW visible
13 Dec 7.5 23:19:39 10° W 23:22:53 35° NNW 23:22:53 35° NNW visible
14 Dec 7.4 22:56:07 10° W 22:59:25 35° NNW 23:00:22 29° NNE visible
15 Dec 7.4 22:32:32 10° W 22:35:52 36° NNW 22:37:48 20° NE visible
16 Dec 9.6 00:12:10 10° NW 00:12:18 11° NW 00:12:18 11° NW visible
16 Dec 7.4 22:08:55 10° W 22:12:16 36° NNW 22:15:11 12° NE visible
16 Dec 8.9 23:48:34 10° NW 23:49:41 16° NW 23:49:41 16° NW visible
17 Dec 8.3 23:24:55 10° NW 23:27:02 21° NNW 23:27:02 21° NNW visible
18 Dec 7.9 23:01:15 10° NW 23:04:09 23° N 23:04:22 23° N visible
19 Dec 7.9 22:37:31 10° NW 22:40:28 23° N 22:41:42 19° NNE visible
